Location: Byszew
(52.1813°N, 19.2693°E)
Time: 18:58:03
(UTC+00:00)

NOAA 18 - Pass Details

Date: 04 July 2022
Orbit: 839 x 860 km, 98.9° (Epoch: 17 August)

Event Time Altitude Azimuth Distance (km) Brightness Sun altitude
Exits shadow 20:20:03 - 171° (S) 2,709 7.3 -8.4°
Reaches altitude 10° 20:20:39 10° 172° (S) 2,481 7.1 -8.4°
Maximum altitude 20:26:09 71° 256° (WSW) 911 5.5 -8.9°
Drops below altitude 10° 20:31:43 10° 341° (NNW) 2,509 9.2 -9.4°
Sets 20:34:08 0° 343° (NNW) 3,452 10.2 -9.5°
